Weather in Belyanitsy

Russia / Tver Oblast     57°41′48″N   36°58′35″E
temp.,
°C
wind,
m/s
gust,
m/s
humid.,
%
clouds,
%
prec.,
mm/h
press.,
hPa
HPBL,
m
12 may, wed
wed1200:00+9se33805 0.0 102843
03:00+9se33825 0.0 102833
06:00+10ese23870 0.0 102884
09:00+16ese34733 0.0 1027400
12:00+20e45625 0.0 1026970
15:00+22e67555 0.0 10241477
18:00+20e5106898 0.6 1022722
21:00+15ene2390100 8.9 102277
13 may, thu
thu1300:00+13ese4129377 0.0 1021435
03:00+12ese51094100 0.0 1021432
06:00+12se5109484 0.0 1021476
09:00+15se687619 0.2 10211069
12:00+18se56595 0.0 10201268
15:00+19ese576871 0.3 10171194
18:00+14s5997100 17.2 1013474
21:00+12sse379629 22.9 1014305
14 may, fri
fri1400:00+11s3795100 0.0 1015368
03:00+9sse389652 0.0 1016179
06:00+10s37957 0.0 1017214
09:00+14s477449 0.0 1017728
12:00+16s565992 0.0 10171292
15:00+18s455872 0.0 10161266
18:00+18se3565100 0.0 1015964
21:00+13ese379392 0.0 1014122
15 may, sat
sat1500:00+13ese4109796 0.0 1013235
03:00+12ese3997100 1.5 1011198
06:00+13ese3697100 0.1 1010154
09:00+17sse51283100 0.9 1010704
12:00+21sse567172 0.1 1009986
15:00+21s577193 1.8 10081054
18:00+19s4878100 3.1 1007340
21:00+15sse4793100 3.6 1006147
16 may, sun
sun1600:00+14s489626 1.1 1007188
03:00+12ssw3796100 1.3 1007153
06:00+13sw499470 0.0 1008292
09:00+17sw577916 0.0 1009711
12:00+19sw676727 0.9 10101263
15:00+19sw686812 3.5 10101200
18:00+16wsw588194 3.1 1011383
21:00+13w37944 4.9 1013159